Weather History for Missoula, MT

Change the Weather History Date:

Wednesday, September 5, 2012

  Actual Average Record
Temperature  
Mean Temperature 62 °F 62 °F  
Max Temperature 81 °F 78 °F 96 °F (1967)
Min Temperature 42 °F 45 °F 34 °F (1897)
Degree Days  
Heating Degree Days 3 5  
Month to date heating degree days 20 21  
Since 1 July heating degree days 51 105  
Cooling Degree Days 0 1  
Month to date cooling degree days 0 6  
Year to date cooling degree days 415 323  
Growing Degree Days 12 (Base 50)    
Moisture  
Dew Point 34 °F    
Average Humidity 46    
Maximum Humidity 76    
Minimum Humidity 16    
Precipitation  
Precipitation 0.00 in 0.04 in 0.75 in (1897)
Month to date precipitation 0.00 0.21  
Year to date precipitation 10.51 10.24  
Snow  
Snow 0.00 in - - ()
Month to date snowfall 0.0  
Year to date snowfall 29.2  
Since 1 July snowfall 0.0  
Snow Depth 0.00 in    
Sea Level Pressure  
Sea Level Pressure 30.02 in    
Wind  
Wind Speed 4 mph (North)    
Max Wind Speed 18 mph    
Max Gust Speed 24 mph    
Visibility 9 miles    
Events      
T = Trace of Precipitation, MM = Missing Value Source: NWS Daily Summary

Daily Weather History Graph

Daily Weather History Graph

Search for Another Location

Airport:

Trip Planner

Search our weather history database for the weather conditions in past years. The results will help you decide how hot, cold, wet, or windy it might be!

Date:

Astronomy

Sep. 05, 2012 Rise Set
Actual Time 7:01 AM MDT 8:06 PM MDT
Civil Twilight 6:30 AM MDT 8:37 PM MDT
Nautical Twilight 5:53 AM MDT 9:15 PM MDT
Astronomical Twilight 5:13 AM MDT 9:54 PM MDT
Moon 10:14 PM MDT (9/5) 12:33 PM MDT (9/5)
Length of Visible Light 14h 07m
Length of Day
13h 05m
Waning Gibbous, 75% of the Moon is Illuminated
Sep 5
Waning Gibbous
Sep 8
Last Quarter
Sep 15
New
Sep 22
First Quarter
Sep 29
Full

Hourly Weather History & Observations

Time (MDT) Temp. Windchill Dew Point Humidity Pressure Visibility Wind Dir Wind Speed Gust Speed Precip Events Conditions
12:53 AM 53.1 °F - 32.0 °F 45% 30.11 in 10.0 mi SSE 3.5 mph - N/A   Clear
1:53 AM 51.1 °F - 34.0 °F 52% 30.11 in 10.0 mi Calm Calm - N/A   Clear
2:53 AM 48.9 °F - 33.1 °F 54% 30.12 in 10.0 mi Calm Calm - N/A   Clear
3:53 AM 46.0 °F - 33.1 °F 61% 30.12 in 10.0 mi Calm Calm - N/A   Clear
4:53 AM 46.0 °F 44.8 °F 34.0 °F 63% 30.12 in 10.0 mi ENE 3.5 mph - N/A   Clear
5:53 AM 45.0 °F - 32.0 °F 60% 30.12 in 10.0 mi Calm Calm - N/A   Clear
6:53 AM 43.0 °F - 36.0 °F 76% 30.12 in 10.0 mi Calm Calm - N/A   Clear
7:53 AM 45.0 °F - 35.1 °F 68% 30.13 in 10.0 mi Calm Calm - N/A   Clear
8:53 AM 50.0 °F - 35.1 °F 57% 30.13 in 10.0 mi SE 3.5 mph - N/A   Clear
9:53 AM 52.0 °F - 36.0 °F 54% 30.12 in 7.0 mi SSE 4.6 mph - N/A   Clear
10:53 AM 57.9 °F - 36.0 °F 44% 30.09 in 5.0 mi Calm Calm - N/A   Smoke
11:53 AM 64.0 °F - 35.1 °F 34% 30.06 in 5.0 mi Calm Calm - N/A   Smoke
12:53 PM 69.1 °F - 35.1 °F 29% 30.02 in 7.0 mi Calm Calm - N/A   Clear
1:53 PM 75.9 °F - 35.1 °F 23% 29.98 in 10.0 mi Variable 5.8 mph - N/A   Clear
2:53 PM 78.1 °F - 34.0 °F 20% 29.96 in 10.0 mi Variable 4.6 mph - N/A   Clear
3:53 PM 78.1 °F - 33.1 °F 19% 29.94 in 10.0 mi SW 10.4 mph - N/A   Clear
4:53 PM 79.0 °F - 33.1 °F 19% 29.92 in 10.0 mi WNW 10.4 mph 18.4 mph N/A   Clear
5:53 PM 80.1 °F - 30.0 °F 16% 29.90 in 10.0 mi NW 17.3 mph - N/A   Clear
6:53 PM 75.9 °F - 33.1 °F 21% 29.92 in 10.0 mi NW 10.4 mph - N/A   Clear
7:53 PM 73.0 °F - 34.0 °F 24% 29.93 in 10.0 mi NNE 11.5 mph - N/A   Clear
8:53 PM 72.0 °F - 33.1 °F 24% 29.93 in 10.0 mi North 11.5 mph - N/A   Clear
9:53 PM 69.1 °F - 33.1 °F 26% 29.93 in 10.0 mi NNW 6.9 mph - N/A   Clear
10:53 PM 66.0 °F - 34.0 °F 30% 29.92 in 10.0 mi Calm Calm - N/A   Clear
11:53 PM 64.9 °F - 35.1 °F 33% 29.92 in 10.0 mi SSE 4.6 mph - N/A   Clear